sat.trackr.live / text

‹ back to catalog

STARLINK-35118

NORAD 66858 · 2025-281L

PAYLOAD ACTIVE UNKNOWN

§ Identity

Operator
Country
US
Launch date
2025-12-02
Launch site
AFETR
Launch vehicle
Mass (kg)
RCS (m²)

Purposes: comms

External: N2YO · Heavens-Above · Gunter

§ Orbital elements

Epoch: 2026-05-25T01:20:48.385248Z

Period
94.27 min
Inclination
42.9980°
Eccentricity
0.0001250
Mean motion
15.27589499 rev/d
Perigee alt
482.2 km
Apogee alt
483.9 km
Semi-major
6,861.2 km
B*
9.2635e-4
RAAN
272.2942°
Arg perigee
289.3255°
Mean anomaly
70.7461°
Rev number
2,786

§ Raw data

STARLINK-351181 66858U 25281L   26145.05611557  .00025324  00000+0  92635-3 0  99922 66858  42.9980 272.2942 0001250 289.3255  70.7461 15.27589499 27864

JSON: /api/v1/satellites/66858 · /tle

For live sub-satellite position, see the globe view (requires WebGL).

§ Visibility from observer

Set your observer location to see the next 7 days of passes ≥ 10°. The values pass through the URL so the page stays shareable.

No JS? Fill the form by hand. The geolocation button needs JavaScript.